Language selection

Weather shortcuts

West Brevoort - southern half: Past 24 Hour Conditions

 

Mary's Harbour

06:30 AM NDT 14 June 2024
Disclaimer

This table is a summary of hourly weather conditions for the past 24 hours.
Please note that these observations might not always be representative of weather conditions over their associated marine area.

Date / Time
(NDT)
Wind(knots) Conditions Visibility(km) Pressure(kPa) Air tempC) Relative humidity(%) Dew pointC)
14 June 2024
6:30 E 2 Fog 0.4 100.8 9 100 9
5:30 WSW 2 Fog 0.2 100.8 9 100 9
4:30 NE 3 Fog 0.4 100.7 8 100 8
3:30 SW 2 Mist 2 100.7 9 100 9
2:30 SSW 4 Fog 0.8 100.7 9 100 9
1:30 S 2 Fog 0.4 100.7 9 100 9
0:30 calm Mist 8 100.6 9 100 9
13 June 2024
23:30 calm Cloudy 16 100.6 9 99 8
22:30 NE 2 Cloudy 16 100.6 9 99 9
21:30 S 2 Light Rain 16 100.6 9 99 9
20:30 SE 2 Light Rain 16 100.5 9 99 9
19:30 NE 7 Light Rain 11 100.5 9 98 9
18:30 NNW 7 Light Rain 16 100.4 12 96 11
17:30 N 5 Cloudy 16 100.4 12 95 11
16:30 NW 9 gusts 18 Cloudy 16 100.3 12 96 11
15:30 NW 10 gusts 17 Cloudy 16 100.4 11 97 11
14:30 NNW 10 Light Rain 5 100.4 10 99 10
13:30 N 7 Mist 10 100.4 9 99 9
12:30 N 5 Light Rain 5 100.5 9 99 9
11:30 N 5 Cloudy 15 100.6 8 99 8
10:30 N 6 Light Rain 16 100.7 8 99 8
9:30 N 4 Light Rain 13 100.8 8 99 8
8:30 ENE 2 Rain 4 101.0 7 100 7
7:30 ENE 2 Rain 3 101.0 7 100 7
6:30 E 2 Light Rain 8 101.1 7 99 7

Zoom-in to make a selection

Map of Atlantic - Labrador marine weather areas Kangiqsualujjuaq Airport Cape Kakkiviak Cape Kiglapait Cartwright Airport CFB Goose Bay Hopedale Mary's Harbour Nain Airport Makkovik Airport Saglek Tukialik Bay
Legend:
buoy Buoy
land station Land Station

Atlantic - Labrador Area

Another Region

Features

New Predicting and Alerting Coastal Flooding Program

Find out about coastal flooding coverage, forecasts and warnings in your region

Date modified: